Flag for Algeria Weather past 2 weeks in Oran, Algeria

Now
77 °F

Passing clouds.


Feels Like: 78 °F
Forecast: 75 / 85 °F
Wind: 6 mph from Northeast

Location: Oran / Es Senia

Current Time: Aug 30, 2015 at 5:48:03 AM

Latest Report: Aug 30, 2015 at 4:30 AM


Visibility: 4 mi

Pressure: 29.98 "Hg

Humidity: 94%

Dew point: 75 °F

Location of OranLocation

Historic Weather in Oran — Graph

°F

Oran temperature yesterday

Maximum temperature yesterday: 88 °F (at 1:00 PM)
Minimum temperature yesterday: 77 °F (at 3:00 AM)
Average temperature yesterday: 82 °F

Past Weeks' High & Low Weather Summary

 TemperatureHumidityPressure
High91 °F (Aug 20, 5:00 PM)94% (Aug 17, 4:30 AM)30.12 "Hg (Aug 17, 4:30 AM)
Low64 °F (Aug 15, 7:00 AM)16% (Aug 15, 3:00 PM)29.83 "Hg (Aug 17, 4:00 PM)
Average79 °F67%29.97 "Hg
* Reported Aug 15 4:00 AM — Aug 30 4:30 AM, Oran, Weather by CustomWeather, © 2015

Note: Actual official high and low records may vary slightly from our data, if they occured in-between our weather recording intervals... More about our weather records

Advertising

Oran weather history for previous 24 hours

 ConditionsComfort  
Time TempWeatherWind HumidityBarometerVisibility
4:30 AM
Sun, Aug 30
77 °FPassing clouds.6 mph94%29.98 "Hg4 mi
4:00 AM77 °FPassing clouds.9 mph89%29.98 "Hg4 mi
3:30 AM77 °FPassing clouds.9 mph94%29.98 "Hg4 mi
3:00 AM77 °FPassing clouds.5 mph94%29.98 "Hg4 mi
2:30 AM77 °FPassing clouds.9 mph94%29.98 "Hg4 mi
2:00 AM77 °FPassing clouds.6 mph94%30.01 "Hg4 mi
1:30 AM77 °FPassing clouds.7 mph89%30.01 "Hg5 mi
1:00 AM77 °FPassing clouds.7 mph89%30.01 "Hg5 mi
12:30 AM79 °FPassing clouds.8 mph84%30.01 "Hg5 mi
12:00 AM79 °FPassing clouds.9 mph84%30.04 "Hg5 mi
11:30 PM
Sat, Aug 29
79 °FPassing clouds.8 mph89%30.01 "Hg5 mi
11:00 PM79 °FPassing clouds.7 mph89%30.04 "Hg5 mi
10:30 PM79 °FPassing clouds.7 mph89%30.04 "Hg5 mi
10:00 PM79 °FPassing clouds.8 mph89%30.04 "Hg5 mi
9:30 PM79 °FPassing clouds.12 mph89%30.01 "Hg5 mi
9:00 PM79 °FPassing clouds.12 mph89%30.01 "Hg5 mi
8:30 PM79 °FPassing clouds.14 mph84%30.01 "Hg5 mi
8:00 PM81 °FPassing clouds.14 mph79%29.98 "Hg5 mi
7:30 PM81 °FPassing clouds.15 mph84%29.98 "Hg5 mi
7:00 PM82 °FScattered clouds.13 mph74%29.98 "Hg6 mi
6:30 PM82 °FScattered clouds.14 mph74%29.98 "Hg6 mi
6:00 PM84 °FScattered clouds.12 mph70%29.98 "Hg6 mi
5:30 PM84 °FScattered clouds.12 mph74%29.98 "Hg6 mi
5:00 PM84 °FScattered clouds.16 mph74%29.98 "Hg6 mi
4:30 PM86 °FScattered clouds.14 mph70%29.98 "Hg6 mi
4:00 PM86 °FScattered clouds.16 mph70%29.98 "Hg6 mi
3:30 PM88 °FScattered clouds.16 mph62%29.98 "Hg6 mi
3:00 PM88 °FScattered clouds.18 mph62%29.98 "Hg6 mi
2:30 PM88 °FScattered clouds.16 mph62%30.01 "Hg6 mi
2:00 PM88 °FScattered clouds.16 mph62%30.01 "Hg6 mi
1:30 PM88 °FScattered clouds.14 mph62%30.04 "Hg6 mi
1:00 PM88 °FScattered clouds.12 mph62%30.04 "Hg6 mi
12:30 PM86 °FScattered clouds.9 mph66%30.04 "Hg6 mi
12:00 PM84 °FScattered clouds.9 mph70%30.04 "Hg6 mi
11:00 AM82 °FBroken clouds.7 mph79%30.04 "Hg6 mi
10:00 AM82 °FBroken clouds.7 mph79%30.04 "Hg6 mi
9:30 AM82 °FScattered clouds.5 mph74%30.04 "Hg5 mi
8:30 AM81 °FPartly sunny.No wind79%30.01 "Hg5 mi
8:00 AM79 °FPartly sunny.3 mph79%30.01 "Hg4 mi
7:00 AM79 °FPartly sunny.2 mph79%30.01 "Hg4 mi
6:30 AM79 °FScattered clouds.6 mph84%29.98 "Hg4 mi
6:00 AM77 °FPassing clouds.5 mph89%29.98 "Hg4 mi
5:30 AM77 °FPartly cloudy.2 mph89%29.98 "Hg4 mi
5:00 AM77 °FPartly cloudy.5 mph89%29.98 "Hg4 mi
Weather by CustomWeather, © 2015

See weather overviewHow to use our weather pages